Location: Darmstadt
(49.8706°N, 8.6494°E)
Time: 07:18:44
(UTC+01:00)

GEOS 3 Rocket - Pass Details

Date: 31 October 2020
Orbit: 770 x 850 km, 115.0° (Epoch: 03 December)

Event Time Altitude Azimuth Distance (km) Brightness Sun altitude
Exits shadow 20:09:58 64° 244° (WSW) 932 3.9 -30.3°
Drops below altitude 10° 20:15:09 10° 314° (NW) 2,478 6.8 -31.1°
Sets 20:17:32 0° 318° (NW) 3,421 7.7 -31.5°
